Regional Weather Roundup
Issued by NWS

Home | Current Version | Previous Version | Text Only | Print | Product List | Glossary On
Versions: 1 2 3 4 5 6 7 8 9 10 11 12 13 14 15 16 17 18 19 20 21 22 23 24 25 26 27 28 29 30 31 32 33 34 35 36 37 38 39 40 41 42 43 44 45 46 47 48 49 50
000
ASUS43 KBIS 051902
RWRND

NORTH DAKOTA REGIONAL WEATHER ROUNDUP
NATIONAL WEATHER SERVICE BISMARCK ND
200 PM CDT SUN JUL 05 2015

NOTE: "FAIR" INDICATES FEW OR NO CLOUDS BELOW 12,000 FEET WITH NO
SIGNIFICANT WEATHER AND/OR OBSTRUCTIONS TO VISIBILITY.


NDZ001>003-009>011-017-052000-
NORTHWEST NORTH DAKOTA

CITY           SKY/WX    TMP DP  RH WIND       PRES   REMARKS
WILLISTON      MOSUNNY   76  52  43 N16G24    29.97R HAZE
MINOT          PTSUNNY   75  62  64 NW17G24   29.87R HAZE
$$

NDZ018>021-031>035-040>046-052000-
SOUTHWEST NORTH DAKOTA

CITY           SKY/WX    TMP DP  RH WIND       PRES   REMARKS
BISMARCK       MOSUNNY   78  64  61 N14       29.84R
DICKINSON      CLOUDY    70  58  65 N15       29.93R
GARRISON         N/A     75  60  59 N12G18    29.89R
HETTINGER ARPT CLOUDY    73  62  68 N18G26    29.92R
$$

NDZ004>008-012>016-024-026-027-054-052000-
NORTHEAST NORTH DAKOTA

CITY           SKY/WX    TMP DP  RH WIND       PRES   REMARKS
GRAND FORKS    RAIN      66  66 100 W6        29.75R FOG
GRND FRKS AFB  DRIZZLE   68  66  94 NW3       29.76R
DEVILS LAKE    PTSUNNY   72  63  73 N13       29.81R
$$

NDZ022-023-025-028>030-036>039-047>053-052000-
SOUTHEAST NORTH DAKOTA

CITY           SKY/WX    TMP DP  RH WIND       PRES   REMARKS
FARGO          CLOUDY    81  68  64 W7        29.76S
JAMESTOWN      PTSUNNY   72  65  78 NW5       29.78S
$$



USA.gov is the U.S. government's official web portal to all federal, state and local government web resources and services.